Year,Month,Day,Hour,Minute,Value (Times are PST for temperature in C)
2007,05,24,00,00,10.30
2007,05,24,00,01,10.30
2007,05,24,00,02,10.30
2007,05,24,00,03,10.30
2007,05,24,00,04,10.20
2007,05,24,00,05,10.20
2007,05,24,00,06,10.20
2007,05,24,00,07,10.20
2007,05,24,00,08,10.20
2007,05,24,00,09,10.10
2007,05,24,00,10,10.10
2007,05,24,00,11,10.10
2007,05,24,00,12,10.10
2007,05,24,00,13,10.10
2007,05,24,00,14,10.10
2007,05,24,00,15,10.10
2007,05,24,00,16,10.10
2007,05,24,00,17,10.10
2007,05,24,00,18,10.10
2007,05,24,00,19,10.10
2007,05,24,00,20,10.10
2007,05,24,00,21,10.00
2007,05,24,00,22,9.90
2007,05,24,00,23,9.90
2007,05,24,00,24,9.90
2007,05,24,00,25,9.90
2007,05,24,00,26,9.90
2007,05,24,00,27,9.90
2007,05,24,00,28,9.90
2007,05,24,00,29,9.90
2007,05,24,00,30,9.90
2007,05,24,00,31,9.90
2007,05,24,00,32,9.90
2007,05,24,00,33,9.90
2007,05,24,00,34,9.80
2007,05,24,00,35,9.80
2007,05,24,00,36,9.80
2007,05,24,00,37,9.80
2007,05,24,00,38,9.70
2007,05,24,00,39,9.70
2007,05,24,00,40,9.70
2007,05,24,00,41,9.70
2007,05,24,00,42,9.70
2007,05,24,00,43,9.70
2007,05,24,00,44,9.70
2007,05,24,00,45,9.70
2007,05,24,00,46,9.70
2007,05,24,00,47,9.60
2007,05,24,00,48,9.60
2007,05,24,00,49,9.60
2007,05,24,00,50,9.60
2007,05,24,00,51,9.50
2007,05,24,00,52,9.50
2007,05,24,00,53,9.50
2007,05,24,00,54,9.40
2007,05,24,00,55,9.40
2007,05,24,00,56,9.40
2007,05,24,00,57,9.40
2007,05,24,00,58,9.30
2007,05,24,00,59,9.30
2007,05,24,01,00,9.30
2007,05,24,01,01,9.20
2007,05,24,01,02,9.20
2007,05,24,01,03,9.20
2007,05,24,01,04,9.20
2007,05,24,01,05,9.20
2007,05,24,01,06,9.20
2007,05,24,01,07,9.10
2007,05,24,01,08,9.10
2007,05,24,01,09,9.10
2007,05,24,01,10,9.00
2007,05,24,01,11,9.00
2007,05,24,01,12,9.00
2007,05,24,01,13,9.00
2007,05,24,01,14,9.00
2007,05,24,01,15,8.90
2007,05,24,01,16,8.90
2007,05,24,01,17,8.90
2007,05,24,01,18,8.90
2007,05,24,01,19,8.80
2007,05,24,01,20,8.80
2007,05,24,01,21,8.80
2007,05,24,01,22,8.80
2007,05,24,01,23,8.80
2007,05,24,01,24,8.80
2007,05,24,01,25,8.70
2007,05,24,01,26,8.70
2007,05,24,01,27,8.70
2007,05,24,01,28,8.70
2007,05,24,01,29,8.70
2007,05,24,01,30,8.70
2007,05,24,01,31,8.70
2007,05,24,01,32,8.70
2007,05,24,01,33,8.70
2007,05,24,01,34,8.70
2007,05,24,01,35,8.70
2007,05,24,01,36,8.70
2007,05,24,01,37,8.70
2007,05,24,01,38,8.60
2007,05,24,01,39,8.60
2007,05,24,01,40,8.60
2007,05,24,01,41,8.60
2007,05,24,01,42,8.60
2007,05,24,01,43,8.50
2007,05,24,01,44,8.50
2007,05,24,01,45,8.50
2007,05,24,01,46,8.50
2007,05,24,01,47,8.50
2007,05,24,01,48,8.50
2007,05,24,01,49,8.50
2007,05,24,01,50,8.50
2007,05,24,01,51,8.50
2007,05,24,01,52,8.40
2007,05,24,01,53,8.40
2007,05,24,01,54,8.40
2007,05,24,01,55,8.40
2007,05,24,01,56,8.40
2007,05,24,01,57,8.40
2007,05,24,01,58,8.40
2007,05,24,01,59,8.40
2007,05,24,02,00,8.40
2007,05,24,02,01,8.40
2007,05,24,02,02,8.40
2007,05,24,02,03,8.40
2007,05,24,02,04,8.40
2007,05,24,02,05,8.30
2007,05,24,02,06,8.30
2007,05,24,02,07,8.30
2007,05,24,02,08,8.30
2007,05,24,02,09,8.30
2007,05,24,02,10,8.30
2007,05,24,02,11,8.30
2007,05,24,02,12,8.30
2007,05,24,02,13,8.30
2007,05,24,02,14,8.20
2007,05,24,02,15,8.20
2007,05,24,02,16,8.20
2007,05,24,02,17,8.20
2007,05,24,02,18,8.20
2007,05,24,02,19,8.20
2007,05,24,02,20,8.20
2007,05,24,02,21,8.20
2007,05,24,02,22,8.20
2007,05,24,02,23,8.20
2007,05,24,02,24,8.20
2007,05,24,02,25,8.20
2007,05,24,02,26,8.20
2007,05,24,02,27,8.20
2007,05,24,02,28,8.20
2007,05,24,02,29,8.20
2007,05,24,02,30,8.20
2007,05,24,02,31,8.20
2007,05,24,02,32,8.20
2007,05,24,02,33,8.20
2007,05,24,02,34,8.20
2007,05,24,02,35,8.20
2007,05,24,02,36,8.20
2007,05,24,02,37,8.20
2007,05,24,02,38,8.20
2007,05,24,02,39,8.20
2007,05,24,02,40,8.10
2007,05,24,02,41,8.10
2007,05,24,02,42,8.10
2007,05,24,02,43,8.10
2007,05,24,02,44,8.10
2007,05,24,02,45,8.10
2007,05,24,02,46,8.10
2007,05,24,02,47,8.10
2007,05,24,02,48,8.10
2007,05,24,02,49,8.10
2007,05,24,02,50,8.10
2007,05,24,02,51,8.10
2007,05,24,02,52,8.10
2007,05,24,02,53,8.10
2007,05,24,02,54,8.10
2007,05,24,02,55,8.10
2007,05,24,02,56,8.00
2007,05,24,02,57,8.00
2007,05,24,02,58,8.00
2007,05,24,02,59,8.00
2007,05,24,03,00,8.00
2007,05,24,03,01,8.00
2007,05,24,03,02,8.00
2007,05,24,03,03,8.00
2007,05,24,03,04,8.00
2007,05,24,03,05,8.00
2007,05,24,03,06,8.00
2007,05,24,03,07,8.00
2007,05,24,03,08,8.00
2007,05,24,03,09,8.00
2007,05,24,03,10,8.00
2007,05,24,03,11,8.00
2007,05,24,03,12,8.00
2007,05,24,03,13,8.00
2007,05,24,03,14,8.00
2007,05,24,03,15,8.00
2007,05,24,03,16,8.00
2007,05,24,03,17,8.00
2007,05,24,03,18,7.90
2007,05,24,03,19,7.90
2007,05,24,03,20,7.90
2007,05,24,03,21,7.90
2007,05,24,03,22,7.90
2007,05,24,03,23,7.90
2007,05,24,03,24,7.90
2007,05,24,03,25,7.90
2007,05,24,03,26,7.90
2007,05,24,03,27,7.80
2007,05,24,03,28,7.80
2007,05,24,03,29,7.80
2007,05,24,03,30,7.80
2007,05,24,03,31,7.80
2007,05,24,03,32,7.80
2007,05,24,03,33,7.80
2007,05,24,03,34,7.80
2007,05,24,03,35,7.80
2007,05,24,03,36,7.80
2007,05,24,03,37,7.80
2007,05,24,03,38,7.80
2007,05,24,03,39,7.80
2007,05,24,03,40,7.80
2007,05,24,03,41,7.80
2007,05,24,03,42,7.80
2007,05,24,03,43,7.80
2007,05,24,03,44,7.80
2007,05,24,03,45,7.80
2007,05,24,03,46,7.80
2007,05,24,03,47,7.80
2007,05,24,03,48,7.80
2007,05,24,03,49,7.80
2007,05,24,03,50,7.80
2007,05,24,03,51,7.80
2007,05,24,03,52,7.80
2007,05,24,03,53,7.80
2007,05,24,03,54,7.80
2007,05,24,03,55,7.80
2007,05,24,03,56,7.80
2007,05,24,03,57,7.80
2007,05,24,03,58,7.80
2007,05,24,03,59,7.80
2007,05,24,04,00,7.80
2007,05,24,04,01,7.80
2007,05,24,04,02,7.80
2007,05,24,04,03,7.80
2007,05,24,04,04,7.80
2007,05,24,04,05,7.80
2007,05,24,04,06,7.90
2007,05,24,04,07,7.90
2007,05,24,04,08,7.90
2007,05,24,04,09,7.90
2007,05,24,04,10,7.90
2007,05,24,04,11,7.80
2007,05,24,04,12,7.80
2007,05,24,04,13,7.80
2007,05,24,04,14,7.80
2007,05,24,04,15,7.80
2007,05,24,04,16,7.80
2007,05,24,04,17,7.80
2007,05,24,04,18,7.80
2007,05,24,04,19,7.80
2007,05,24,04,20,7.80
2007,05,24,04,21,7.80
2007,05,24,04,22,7.80
2007,05,24,04,23,7.80
2007,05,24,04,24,7.80
2007,05,24,04,25,7.80
2007,05,24,04,26,7.80
2007,05,24,04,27,7.80
2007,05,24,04,28,7.80
2007,05,24,04,29,7.80
2007,05,24,04,30,7.70
2007,05,24,04,31,7.70
2007,05,24,04,32,7.70
2007,05,24,04,33,7.70
2007,05,24,04,34,7.70
2007,05,24,04,35,7.70
2007,05,24,04,36,7.70
2007,05,24,04,37,7.70
2007,05,24,04,38,7.70
2007,05,24,04,39,7.70
2007,05,24,04,40,7.70
2007,05,24,04,41,7.70
2007,05,24,04,42,7.70
2007,05,24,04,43,7.60
2007,05,24,04,44,7.60
2007,05,24,04,45,7.60
2007,05,24,04,46,7.60
2007,05,24,04,47,7.60
2007,05,24,04,48,7.50
2007,05,24,04,49,7.50
2007,05,24,04,50,7.50
2007,05,24,04,51,7.50
2007,05,24,04,52,7.50
2007,05,24,04,53,7.50
2007,05,24,04,54,7.40
2007,05,24,04,55,7.40
2007,05,24,04,56,7.40
2007,05,24,04,57,7.40
2007,05,24,04,58,7.40
2007,05,24,04,59,7.30
2007,05,24,05,00,7.30
2007,05,24,05,01,7.30
2007,05,24,05,02,7.30
2007,05,24,05,03,7.30
2007,05,24,05,04,7.30
2007,05,24,05,05,7.30
2007,05,24,05,06,7.30
2007,05,24,05,07,7.30
2007,05,24,05,08,7.30
2007,05,24,05,09,7.30
2007,05,24,05,10,7.30
2007,05,24,05,11,7.30
2007,05,24,05,12,7.30
2007,05,24,05,13,7.30
2007,05,24,05,14,7.30
2007,05,24,05,15,7.30
2007,05,24,05,16,7.20
2007,05,24,05,17,7.20
2007,05,24,05,18,7.20
2007,05,24,05,19,7.20
2007,05,24,05,20,7.20
2007,05,24,05,21,7.20
2007,05,24,05,22,7.20
2007,05,24,05,23,7.20
2007,05,24,05,24,7.20
2007,05,24,05,25,7.20
2007,05,24,05,26,7.20
2007,05,24,05,27,7.20
2007,05,24,05,28,7.20
2007,05,24,05,29,7.20
2007,05,24,05,30,7.20
2007,05,24,05,31,7.30
2007,05,24,05,32,7.30
2007,05,24,05,33,7.30
2007,05,24,05,34,7.30
2007,05,24,05,35,7.30
2007,05,24,05,36,7.30
2007,05,24,05,37,7.30
2007,05,24,05,38,7.30
2007,05,24,05,39,7.30
2007,05,24,05,40,7.30
2007,05,24,05,41,7.30
2007,05,24,05,42,7.30
2007,05,24,05,43,7.30
2007,05,24,05,44,7.30
2007,05,24,05,45,7.30
2007,05,24,05,46,7.30
2007,05,24,05,47,7.30
2007,05,24,05,48,7.30
2007,05,24,05,49,7.30
2007,05,24,05,50,7.30
2007,05,24,05,51,7.40
2007,05,24,05,52,7.40
2007,05,24,05,53,7.40
2007,05,24,05,54,7.40
2007,05,24,05,55,7.40
2007,05,24,05,56,7.40
2007,05,24,05,57,7.50
2007,05,24,05,58,7.50
2007,05,24,05,59,7.50
2007,05,24,06,00,7.60
2007,05,24,06,01,7.70
2007,05,24,06,02,7.70
2007,05,24,06,03,7.80
2007,05,24,06,04,7.80
2007,05,24,06,05,7.90
2007,05,24,06,06,7.90
2007,05,24,06,07,8.00
2007,05,24,06,08,8.00
2007,05,24,06,09,8.00
2007,05,24,06,10,8.00
2007,05,24,06,11,8.10
2007,05,24,06,12,8.10
2007,05,24,06,13,8.20
2007,05,24,06,14,8.20
2007,05,24,06,15,8.30
2007,05,24,06,16,8.30
2007,05,24,06,17,8.40
2007,05,24,06,18,8.40
2007,05,24,06,19,8.50
2007,05,24,06,20,8.60
2007,05,24,06,21,8.60
2007,05,24,06,22,8.60
2007,05,24,06,23,8.70
2007,05,24,06,24,8.70
2007,05,24,06,25,8.80
2007,05,24,06,26,8.80
2007,05,24,06,27,8.90
2007,05,24,06,28,9.00
2007,05,24,06,29,9.00
2007,05,24,06,30,9.10
2007,05,24,06,31,9.20
2007,05,24,06,32,9.20
2007,05,24,06,33,9.30
2007,05,24,06,34,9.30
2007,05,24,06,35,9.40
2007,05,24,06,36,9.40
2007,05,24,06,37,9.50
2007,05,24,06,38,9.60
2007,05,24,06,39,9.60
2007,05,24,06,40,9.70
2007,05,24,06,41,9.80
2007,05,24,06,42,9.90
2007,05,24,06,43,10.00
2007,05,24,06,44,10.10
2007,05,24,06,45,10.20
2007,05,24,06,46,10.30
2007,05,24,06,47,10.40
2007,05,24,06,48,10.50
2007,05,24,06,49,10.60
2007,05,24,06,50,10.60
2007,05,24,06,51,10.70
2007,05,24,06,52,10.70
2007,05,24,06,53,10.70
2007,05,24,06,54,10.70
2007,05,24,06,55,10.90
2007,05,24,06,56,11.10
2007,05,24,06,57,11.20
2007,05,24,06,58,11.30
2007,05,24,06,59,11.40
2007,05,24,07,00,11.50
2007,05,24,07,01,11.60
2007,05,24,07,02,11.60
2007,05,24,07,03,11.60
2007,05,24,07,04,11.70
2007,05,24,07,05,11.80
2007,05,24,07,06,11.80
2007,05,24,07,07,11.80
2007,05,24,07,08,11.80
2007,05,24,07,09,11.90
2007,05,24,07,10,12.00
2007,05,24,07,11,12.00
2007,05,24,07,12,12.10
2007,05,24,07,13,12.20
2007,05,24,07,14,12.30
2007,05,24,07,15,12.30
2007,05,24,07,16,12.40
2007,05,24,07,17,12.40
2007,05,24,07,18,12.50
2007,05,24,07,19,12.60
2007,05,24,07,20,12.60
2007,05,24,07,21,12.70
2007,05,24,07,22,12.80
2007,05,24,07,23,12.80
2007,05,24,07,24,12.90
2007,05,24,07,25,13.00
2007,05,24,07,26,13.00
2007,05,24,07,27,13.10
2007,05,24,07,28,13.10
2007,05,24,07,29,13.20
2007,05,24,07,30,13.20
2007,05,24,07,31,13.20
2007,05,24,07,32,13.20
2007,05,24,07,33,13.20
2007,05,24,07,34,13.20
2007,05,24,07,35,13.30
2007,05,24,07,36,13.30
2007,05,24,07,37,13.30
2007,05,24,07,38,13.40
2007,05,24,07,39,13.40
2007,05,24,07,40,13.50
2007,05,24,07,41,13.60
2007,05,24,07,42,13.70
2007,05,24,07,43,13.80
2007,05,24,07,44,13.90
2007,05,24,07,45,14.00
2007,05,24,07,46,14.10
2007,05,24,07,47,14.10
2007,05,24,07,48,14.20
2007,05,24,07,49,14.20
2007,05,24,07,50,14.20
2007,05,24,07,51,14.20
2007,05,24,07,52,14.20
2007,05,24,07,53,14.20
2007,05,24,07,54,14.30
2007,05,24,07,55,14.30
2007,05,24,07,56,14.40
2007,05,24,07,57,14.50
2007,05,24,07,58,14.60
2007,05,24,07,59,14.60
2007,05,24,08,00,14.70
2007,05,24,08,01,14.60
2007,05,24,08,02,14.50
2007,05,24,08,03,14.40
2007,05,24,08,04,14.30
2007,05,24,08,05,14.30
2007,05,24,08,06,14.40
2007,05,24,08,07,14.40
2007,05,24,08,08,14.40
2007,05,24,08,09,14.40
2007,05,24,08,10,14.50
2007,05,24,08,11,14.50
2007,05,24,08,12,14.50
2007,05,24,08,13,14.50
2007,05,24,08,14,14.50
2007,05,24,08,15,14.50
2007,05,24,08,16,14.50
2007,05,24,08,17,14.40
2007,05,24,08,18,14.30
2007,05,24,08,19,14.30
2007,05,24,08,20,14.20
2007,05,24,08,21,14.20
2007,05,24,08,22,14.20
2007,05,24,08,23,14.20
2007,05,24,08,24,14.30
2007,05,24,08,25,14.30
2007,05,24,08,26,14.30
2007,05,24,08,27,14.40
2007,05,24,08,28,14.50
2007,05,24,08,29,14.60
2007,05,24,08,30,14.70
2007,05,24,08,31,14.70
2007,05,24,08,32,14.80
2007,05,24,08,33,14.80
2007,05,24,08,34,14.80
2007,05,24,08,35,14.90
2007,05,24,08,36,15.00
2007,05,24,08,37,15.00
2007,05,24,08,38,15.10
2007,05,24,08,39,15.00
2007,05,24,08,40,15.00
2007,05,24,08,41,15.00
2007,05,24,08,42,15.00
2007,05,24,08,43,15.00
2007,05,24,08,44,15.00
2007,05,24,08,45,15.00
2007,05,24,08,46,15.10
2007,05,24,08,47,15.00
2007,05,24,08,48,15.00
2007,05,24,08,49,14.90
2007,05,24,08,50,14.90
2007,05,24,08,51,14.80
2007,05,24,08,52,14.90
2007,05,24,08,53,14.90
2007,05,24,08,54,14.90
2007,05,24,08,55,14.90
2007,05,24,08,56,14.90
2007,05,24,08,57,14.90
2007,05,24,08,58,14.90
2007,05,24,08,59,14.90
2007,05,24,09,00,14.90
2007,05,24,09,01,14.90
2007,05,24,09,02,14.90
2007,05,24,09,03,15.00
2007,05,24,09,04,15.00
2007,05,24,09,05,15.10
2007,05,24,09,06,15.10
2007,05,24,09,07,15.10
2007,05,24,09,08,15.20
2007,05,24,09,09,15.20
2007,05,24,09,10,15.10
2007,05,24,09,11,15.10
2007,05,24,09,12,15.20
2007,05,24,09,13,15.20
2007,05,24,09,14,15.20
2007,05,24,09,15,15.20
2007,05,24,09,16,15.20
2007,05,24,09,17,15.10
2007,05,24,09,18,15.10
2007,05,24,09,19,15.00
2007,05,24,09,20,15.10
2007,05,24,09,21,15.10
2007,05,24,09,22,15.20
2007,05,24,09,23,15.20
2007,05,24,09,24,15.20
2007,05,24,09,25,15.20
2007,05,24,09,26,15.20
2007,05,24,09,27,15.20
2007,05,24,09,28,15.20
2007,05,24,09,29,15.10
2007,05,24,09,30,15.10
2007,05,24,09,31,15.10
2007,05,24,09,32,15.10
2007,05,24,09,33,15.00
2007,05,24,09,34,15.00
2007,05,24,09,35,15.00
2007,05,24,09,36,15.10
2007,05,24,09,37,15.30
2007,05,24,09,38,15.30
2007,05,24,09,39,15.30
2007,05,24,09,40,15.40
2007,05,24,09,41,15.50
2007,05,24,09,42,15.50
2007,05,24,09,43,15.60
2007,05,24,09,44,15.60
2007,05,24,09,45,15.80
2007,05,24,09,46,15.80
2007,05,24,09,47,15.70
2007,05,24,09,48,15.50
2007,05,24,09,49,15.40
2007,05,24,09,50,15.40
2007,05,24,09,51,15.30
2007,05,24,09,52,15.30
2007,05,24,09,53,15.30
2007,05,24,09,54,15.30
2007,05,24,09,55,15.30
2007,05,24,09,56,15.30
2007,05,24,09,57,15.40
2007,05,24,09,58,15.50
2007,05,24,09,59,15.50
2007,05,24,10,00,15.50
2007,05,24,10,01,15.50
2007,05,24,10,02,15.40
2007,05,24,10,03,15.30
2007,05,24,10,04,15.30
2007,05,24,10,05,15.30
2007,05,24,10,06,15.40
2007,05,24,10,07,15.50
2007,05,24,10,08,15.60
2007,05,24,10,09,15.60
2007,05,24,10,10,15.60
2007,05,24,10,11,15.60
2007,05,24,10,12,15.60
2007,05,24,10,13,15.50
2007,05,24,10,14,15.50
2007,05,24,10,15,15.40
2007,05,24,10,16,15.50
2007,05,24,10,17,15.50
2007,05,24,10,18,15.60
2007,05,24,10,19,15.70
2007,05,24,10,20,15.70
2007,05,24,10,21,15.70
2007,05,24,10,22,15.60
2007,05,24,10,23,15.60
2007,05,24,10,24,15.60
2007,05,24,10,25,15.60
2007,05,24,10,26,15.60
2007,05,24,10,27,15.70
2007,05,24,10,28,15.70
2007,05,24,10,29,15.70
2007,05,24,10,30,15.80
2007,05,24,10,31,15.80
2007,05,24,10,32,15.80
2007,05,24,10,33,15.80
2007,05,24,10,34,16.00
2007,05,24,10,35,16.10
2007,05,24,10,36,16.10
2007,05,24,10,37,16.10
2007,05,24,10,38,16.10
2007,05,24,10,39,16.10
2007,05,24,10,40,16.20
2007,05,24,10,41,16.20
2007,05,24,10,42,16.10
2007,05,24,10,43,16.10
2007,05,24,10,44,16.10
2007,05,24,10,45,16.10
2007,05,24,10,46,16.20
2007,05,24,10,47,16.20
2007,05,24,10,48,16.10
2007,05,24,10,49,16.20
2007,05,24,10,50,16.20
2007,05,24,10,51,16.30
2007,05,24,10,52,16.40
2007,05,24,10,53,16.40
2007,05,24,10,54,16.40
2007,05,24,10,55,16.40
2007,05,24,10,56,16.40
2007,05,24,10,57,16.40
2007,05,24,10,58,16.50
2007,05,24,10,59,16.60
2007,05,24,11,00,16.70
2007,05,24,11,01,16.80
2007,05,24,11,02,16.90
2007,05,24,11,03,16.90
2007,05,24,11,04,17.00
2007,05,24,11,05,17.00
2007,05,24,11,06,17.00
2007,05,24,11,07,17.00
2007,05,24,11,08,17.00
2007,05,24,11,09,17.00
2007,05,24,11,10,17.00
2007,05,24,11,11,17.10
2007,05,24,11,12,17.10
2007,05,24,11,13,17.00
2007,05,24,11,14,17.10
2007,05,24,11,15,17.20
2007,05,24,11,16,17.20
2007,05,24,11,17,17.20
2007,05,24,11,18,17.40
2007,05,24,11,19,17.40
2007,05,24,11,20,17.40
2007,05,24,11,21,17.30
2007,05,24,11,22,17.20
2007,05,24,11,23,17.10
2007,05,24,11,24,17.20
2007,05,24,11,25,17.00
2007,05,24,11,26,17.00
2007,05,24,11,27,17.00
2007,05,24,11,28,17.10
2007,05,24,11,29,17.30
2007,05,24,11,30,17.30
2007,05,24,11,31,17.40
2007,05,24,11,32,17.30
2007,05,24,11,33,17.30
2007,05,24,11,34,17.30
2007,05,24,11,35,17.30
2007,05,24,11,36,17.40
2007,05,24,11,37,17.50
2007,05,24,11,38,17.60
2007,05,24,11,39,17.60
2007,05,24,11,40,17.60
2007,05,24,11,41,17.50
2007,05,24,11,42,17.40
2007,05,24,11,43,17.40
2007,05,24,11,44,17.50
2007,05,24,11,45,17.50
2007,05,24,11,46,17.60
2007,05,24,11,47,17.60
2007,05,24,11,48,17.50
2007,05,24,11,49,17.30
2007,05,24,11,50,17.30
2007,05,24,11,51,17.30
2007,05,24,11,52,17.30
2007,05,24,11,53,17.30
2007,05,24,11,54,17.20
2007,05,24,11,55,17.10
2007,05,24,11,56,17.10
2007,05,24,11,57,17.10
2007,05,24,11,58,17.00
2007,05,24,11,59,17.00
2007,05,24,12,00,17.00
2007,05,24,12,01,16.90
2007,05,24,12,02,16.90
2007,05,24,12,03,16.80
2007,05,24,12,04,16.80
2007,05,24,12,05,16.80
2007,05,24,12,06,16.80
2007,05,24,12,07,16.80
2007,05,24,12,08,16.90
2007,05,24,12,09,17.00
2007,05,24,12,10,16.90
2007,05,24,12,11,16.90
2007,05,24,12,12,16.90
2007,05,24,12,13,16.90
2007,05,24,12,14,17.00
2007,05,24,12,15,17.00
2007,05,24,12,16,17.10
2007,05,24,12,17,17.20
2007,05,24,12,18,17.20
2007,05,24,12,19,17.20
2007,05,24,12,20,17.20
2007,05,24,12,21,17.20
2007,05,24,12,22,17.10
2007,05,24,12,23,17.10
2007,05,24,12,24,17.10
2007,05,24,12,25,17.10
2007,05,24,12,26,17.10
2007,05,24,12,27,17.20
2007,05,24,12,28,17.30
2007,05,24,12,29,17.30
2007,05,24,12,30,17.30
2007,05,24,12,31,17.40
2007,05,24,12,32,17.40
2007,05,24,12,33,17.50
2007,05,24,12,34,17.60
2007,05,24,12,35,17.80
2007,05,24,12,36,17.80
2007,05,24,12,37,17.90
2007,05,24,12,38,17.80
2007,05,24,12,39,17.60
2007,05,24,12,40,17.50
2007,05,24,12,41,17.50
2007,05,24,12,42,17.50
2007,05,24,12,43,17.50
2007,05,24,12,44,17.50
2007,05,24,12,45,17.60
2007,05,24,12,46,17.80
2007,05,24,12,47,17.90
2007,05,24,12,48,18.10
2007,05,24,12,49,18.30
2007,05,24,12,50,18.50
2007,05,24,12,51,18.60
2007,05,24,12,52,18.70
2007,05,24,12,53,18.90
2007,05,24,12,54,18.90
2007,05,24,12,55,18.90
2007,05,24,12,56,18.90
2007,05,24,12,57,18.90
2007,05,24,12,58,18.90
2007,05,24,12,59,18.90
2007,05,24,13,00,18.90
2007,05,24,13,01,18.90
2007,05,24,13,02,18.90
2007,05,24,13,03,18.90
2007,05,24,13,04,19.00
2007,05,24,13,05,19.10
2007,05,24,13,06,19.10
2007,05,24,13,07,19.10
2007,05,24,13,08,19.10
2007,05,24,13,09,19.10
2007,05,24,13,10,19.00
2007,05,24,13,11,18.90
2007,05,24,13,12,18.90
2007,05,24,13,13,18.70
2007,05,24,13,14,18.50
2007,05,24,13,15,18.50
2007,05,24,13,16,18.40
2007,05,24,13,17,18.30
2007,05,24,13,18,18.20
2007,05,24,13,19,18.20
2007,05,24,13,20,18.20
2007,05,24,13,21,18.20
2007,05,24,13,22,18.10
2007,05,24,13,23,18.10
2007,05,24,13,24,18.20
2007,05,24,13,25,18.20
2007,05,24,13,26,18.20
2007,05,24,13,27,18.30
2007,05,24,13,28,18.50
2007,05,24,13,29,18.60
2007,05,24,13,30,18.70
2007,05,24,13,31,18.90
2007,05,24,13,32,19.10
2007,05,24,13,33,19.20
2007,05,24,13,34,19.30
2007,05,24,13,35,19.50
2007,05,24,13,36,19.50
2007,05,24,13,37,19.60
2007,05,24,13,38,19.60
2007,05,24,13,39,19.70
2007,05,24,13,40,19.70
2007,05,24,13,41,19.50
2007,05,24,13,42,19.40
2007,05,24,13,43,19.30
2007,05,24,13,44,19.30
2007,05,24,13,45,19.30
2007,05,24,13,46,19.30
2007,05,24,13,47,19.30
2007,05,24,13,48,19.30
2007,05,24,13,49,19.40
2007,05,24,13,50,19.40
2007,05,24,13,51,19.20
2007,05,24,13,52,19.20
2007,05,24,13,53,19.10
2007,05,24,13,54,19.10
2007,05,24,13,55,19.10
2007,05,24,13,56,19.10
2007,05,24,13,57,19.10
2007,05,24,13,58,19.10
2007,05,24,13,59,19.10
2007,05,24,14,00,19.10
2007,05,24,14,01,19.30
2007,05,24,14,02,19.30
2007,05,24,14,03,19.20
2007,05,24,14,04,19.00
2007,05,24,14,05,18.90
2007,05,24,14,06,18.90
2007,05,24,14,07,18.90
2007,05,24,14,08,18.90
2007,05,24,14,09,18.90
2007,05,24,14,10,19.00
2007,05,24,14,11,19.10
2007,05,24,14,12,19.20
2007,05,24,14,13,19.30
2007,05,24,14,14,19.40
2007,05,24,14,15,19.60
2007,05,24,14,16,19.70
2007,05,24,14,17,19.80
2007,05,24,14,18,19.90
2007,05,24,14,19,20.10
2007,05,24,14,20,20.10
2007,05,24,14,21,20.10
2007,05,24,14,22,19.90
2007,05,24,14,23,19.90
2007,05,24,14,24,19.80
2007,05,24,14,25,19.70
2007,05,24,14,26,19.60
2007,05,24,14,27,19.60
2007,05,24,14,28,19.60
2007,05,24,14,29,19.70
2007,05,24,14,30,19.90
2007,05,24,14,31,20.00
2007,05,24,14,32,20.20
2007,05,24,14,33,20.20
2007,05,24,14,34,20.30
2007,05,24,14,35,20.30
2007,05,24,14,36,20.40
2007,05,24,14,37,20.40
2007,05,24,14,38,20.50
2007,05,24,14,39,20.50
2007,05,24,14,40,20.60
2007,05,24,14,41,20.70
2007,05,24,14,42,20.80
2007,05,24,14,43,21.00
2007,05,24,14,44,21.00
2007,05,24,14,45,21.10
2007,05,24,14,46,21.10
2007,05,24,14,47,21.10
2007,05,24,14,48,21.10
2007,05,24,14,49,21.10
2007,05,24,14,50,21.10
2007,05,24,14,51,21.20
2007,05,24,14,52,21.20
2007,05,24,14,53,21.10
2007,05,24,14,54,21.10
2007,05,24,14,55,21.00
2007,05,24,14,56,20.90
2007,05,24,14,57,20.80
2007,05,24,14,58,20.50
2007,05,24,14,59,20.40
2007,05,24,15,00,20.30
2007,05,24,15,01,20.20
2007,05,24,15,02,20.10
2007,05,24,15,03,20.00
2007,05,24,15,04,19.90
2007,05,24,15,05,19.90
2007,05,24,15,06,19.90
2007,05,24,15,07,20.00
2007,05,24,15,08,20.10
2007,05,24,15,09,20.10
2007,05,24,15,10,20.30
2007,05,24,15,11,20.40
2007,05,24,15,12,20.50
2007,05,24,15,13,20.50
2007,05,24,15,14,20.20
2007,05,24,15,15,20.10
2007,05,24,15,16,19.90
2007,05,24,15,17,19.90
2007,05,24,15,18,19.70
2007,05,24,15,19,19.30
2007,05,24,15,20,19.00
2007,05,24,15,21,18.70
2007,05,24,15,22,18.50
2007,05,24,15,23,18.40
2007,05,24,15,24,18.20
2007,05,24,15,25,18.30
2007,05,24,15,26,18.40
2007,05,24,15,27,18.50
2007,05,24,15,28,18.50
2007,05,24,15,29,18.50
2007,05,24,15,30,18.60
2007,05,24,15,31,18.80
2007,05,24,15,32,18.90
2007,05,24,15,33,18.90
2007,05,24,15,34,18.90
2007,05,24,15,35,18.90
2007,05,24,15,36,18.90
2007,05,24,15,37,18.90
2007,05,24,15,38,18.90
2007,05,24,15,39,18.90
2007,05,24,15,40,18.90
2007,05,24,15,41,18.90
2007,05,24,15,42,18.90
2007,05,24,15,43,18.90
2007,05,24,15,44,18.90
2007,05,24,15,45,19.00
2007,05,24,15,46,18.90
2007,05,24,15,47,18.80
2007,05,24,15,48,18.70
2007,05,24,15,49,18.70
2007,05,24,15,50,18.80
2007,05,24,15,51,19.00
2007,05,24,15,52,19.10
2007,05,24,15,53,19.10
2007,05,24,15,54,19.20
2007,05,24,15,55,19.20
2007,05,24,15,56,19.20
2007,05,24,15,57,19.20
2007,05,24,15,58,19.20
2007,05,24,15,59,19.20
2007,05,24,16,00,19.20
2007,05,24,16,01,19.20
2007,05,24,16,02,19.20
2007,05,24,16,03,19.20
2007,05,24,16,04,19.10
2007,05,24,16,05,19.10
2007,05,24,16,06,19.10
2007,05,24,16,07,19.20
2007,05,24,16,08,19.30
2007,05,24,16,09,19.40
2007,05,24,16,10,19.40
2007,05,24,16,11,19.30
2007,05,24,16,12,19.30
2007,05,24,16,13,19.10
2007,05,24,16,14,19.00
2007,05,24,16,15,18.90
2007,05,24,16,16,18.90
2007,05,24,16,17,18.80
2007,05,24,16,18,18.80
2007,05,24,16,19,18.80
2007,05,24,16,20,18.90
2007,05,24,16,21,18.90
2007,05,24,16,22,19.00
2007,05,24,16,23,19.10
2007,05,24,16,24,19.10
2007,05,24,16,25,19.10
2007,05,24,16,26,19.00
2007,05,24,16,27,18.90
2007,05,24,16,28,18.90
2007,05,24,16,29,18.80
2007,05,24,16,30,18.90
2007,05,24,16,31,18.90
2007,05,24,16,32,19.10
2007,05,24,16,33,19.30
2007,05,24,16,34,19.40
2007,05,24,16,35,19.50
2007,05,24,16,36,19.60
2007,05,24,16,37,19.60
2007,05,24,16,38,19.60
2007,05,24,16,39,19.60
2007,05,24,16,40,19.50
2007,05,24,16,41,19.50
2007,05,24,16,42,19.40
2007,05,24,16,43,19.40
2007,05,24,16,44,19.50
2007,05,24,16,45,19.50
2007,05,24,16,46,19.40
2007,05,24,16,47,19.30
2007,05,24,16,48,19.30
2007,05,24,16,49,19.30
2007,05,24,16,50,19.30
2007,05,24,16,51,19.40
2007,05,24,16,52,19.50
2007,05,24,16,53,19.60
2007,05,24,16,54,19.60
2007,05,24,16,55,19.60
2007,05,24,16,56,19.60
2007,05,24,16,57,19.70
2007,05,24,16,58,19.80
2007,05,24,16,59,19.80
2007,05,24,17,00,19.80
2007,05,24,17,01,19.80
2007,05,24,17,02,19.90
2007,05,24,17,03,20.00
2007,05,24,17,04,20.10
2007,05,24,17,05,20.20
2007,05,24,17,06,20.20
2007,05,24,17,07,20.20
2007,05,24,17,08,20.20
2007,05,24,17,09,20.20
2007,05,24,17,10,20.10
2007,05,24,17,11,20.00
2007,05,24,17,12,19.90
2007,05,24,17,13,19.90
2007,05,24,17,14,19.90
2007,05,24,17,15,19.90
2007,05,24,17,16,19.90
2007,05,24,17,17,19.90
2007,05,24,17,18,19.90
2007,05,24,17,19,19.80
2007,05,24,17,20,19.80
2007,05,24,17,21,19.70
2007,05,24,17,22,19.70
2007,05,24,17,23,19.60
2007,05,24,17,24,19.60
2007,05,24,17,25,19.50
2007,05,24,17,26,19.40
2007,05,24,17,27,19.40
2007,05,24,17,28,19.40
2007,05,24,17,29,19.40
2007,05,24,17,30,19.40
2007,05,24,17,31,19.60
2007,05,24,17,32,19.70
2007,05,24,17,33,19.80
2007,05,24,17,34,19.90
2007,05,24,17,35,19.90
2007,05,24,17,36,19.90